Change the Weather History Date:

Friday, March 8, 2013

  Actual Average (KWRI) Record (KWRI)
Temperature  
Mean Temperature 36 °F -  
Max Temperature 41 °F 46 °F 71 °F (2012)
Min Temperature 30 °F 27 °F 8 °F (2007)
Degree Days  
Heating Degree Days 30    
Moisture  
Dew Point 29 °F    
Average Humidity 87    
Maximum Humidity 93    
Minimum Humidity 57    
Precipitation  
Precipitation 0.16 in - - ()
Sea Level Pressure  
Sea Level Pressure 30.08 in    
Wind  
Wind Speed 10 mph (NNW)    
Max Wind Speed 13 mph    
Max Gust Speed 23 mph    
Visibility 3 miles    
Events Fog , Rain , Snow    
Averages and records for this station are not official NWS values.
T = Trace of Precipitation, MM = Missing Value Source: NWS Daily Summary

Daily Weather History Graph

Daily Weather History Graph

Search for Another Location

Airport or City:

Trip Planner

Search our weather history database for the weather conditions in past years. The results will help you decide how hot, cold, wet, or windy it might be!

Date:

Astronomy

Mar. 08, 2013 Rise Set
Actual Time 6:21 AM EST 5:59 PM EST
Civil Twilight 5:54 AM EST 6:26 PM EST
Nautical Twilight 5:23 AM EST 6:57 PM EST
Astronomical Twilight 4:51 AM EST 7:29 PM EST
Moon 4:04 AM EST (3/8) 2:51 PM EST (3/8)
Length of Visible Light 12h 31m
Length of Day
11h 37m
Waning Crescent, 12% of the Moon is Illuminated
Mar 8
Waning Crescent
Mar 11
New
Mar 19
First Quarter
Mar 27
Full
Apr 3
Last Quarter

Hourly Weather History & Observations

Time (EST) Temp. Windchill Dew Point Humidity Pressure Visibility Wind Dir Wind Speed Gust Speed Precip Events Conditions
12:30 AM 33.8 °F 25.8 °F 30.2 °F 87% 30.08 in 2.5 mi NNW 10.4 mph 18.4 mph 0.01 in Snow Light Snow
12:46 AM 33.8 °F 26.4 °F 30.2 °F 87% 30.08 in 2.5 mi NNW 9.2 mph 17.3 mph 0.01 in Snow Light Snow
12:54 AM 33.1 °F 24.4 °F 30.0 °F 89% 30.09 in 2.0 mi NNW 11.5 mph - 0.01 in Snow Light Snow
1:24 AM 33.8 °F 26.4 °F 30.2 °F 87% 30.08 in 3.0 mi NNW 9.2 mph - 0.00 in Snow Light Snow
1:54 AM 33.1 °F 23.9 °F 28.9 °F 85% 30.08 in 4.0 mi NNW 12.7 mph 19.6 mph 0.00 in Snow Light Snow
2:42 AM 33.8 °F 25.8 °F 28.4 °F 81% 30.06 in 2.0 mi NW 10.4 mph 23.0 mph 0.00 in Snow Light Snow
2:46 AM 33.8 °F 24.8 °F 28.4 °F 81% 30.06 in 1.8 mi NNW 12.7 mph 23.0 mph 0.00 in Snow Light Snow
2:54 AM 32.0 °F 23.0 °F 28.9 °F 88% 30.06 in 1.8 mi NW 11.5 mph 19.6 mph 0.00 in Snow Light Snow
3:03 AM 32.0 °F 23.6 °F 28.4 °F 87% 30.05 in 2.0 mi NNW 10.4 mph - 0.00 in Snow Light Snow
3:20 AM 32.0 °F 23.0 °F 28.4 °F 87% 30.05 in 2.5 mi NW 11.5 mph 17.3 mph 0.00 in Snow Light Snow
3:52 AM 32.0 °F 24.2 °F 28.4 °F 87% 30.05 in 2.0 mi NW 9.2 mph - 0.00 in Snow Light Snow
3:54 AM 32.0 °F 23.6 °F 28.9 °F 88% 30.05 in 2.0 mi NW 10.4 mph - 0.00 in Snow Light Snow
4:54 AM 30.9 °F 22.2 °F 28.0 °F 89% 30.05 in 1.5 mi NW 10.4 mph 19.6 mph 0.00 in Snow Light Snow
4:57 AM 30.2 °F 22.6 °F 28.4 °F 93% 30.05 in 1.5 mi NW 8.1 mph 19.6 mph 0.00 in Snow Light Snow
5:22 AM 30.2 °F 21.3 °F 28.4 °F 93% 30.04 in 2.0 mi NW 10.4 mph - 0.00 in Snow Light Snow
5:28 AM 30.2 °F 21.9 °F 28.4 °F 93% 30.04 in 1.8 mi NW 9.2 mph - 0.00 in Snow Light Snow
5:37 AM 30.2 °F 22.6 °F 28.4 °F 93% 30.04 in 1.0 mi NW 8.1 mph - 0.00 in Snow Light Snow
5:45 AM 30.2 °F 21.3 °F 28.4 °F 93% 30.04 in 0.8 mi NW 10.4 mph - 0.00 in Snow Light Snow
5:47 AM 30.2 °F 23.4 °F 28.4 °F 93% 30.04 in 1.0 mi NW 6.9 mph - 0.00 in Snow Light Snow
5:54 AM 30.9 °F 23.5 °F 28.0 °F 89% 30.05 in 1.0 mi NW 8.1 mph - 0.00 in Snow Light Snow
6:25 AM 30.2 °F 20.8 °F 28.4 °F 93% 30.05 in 1.2 mi NW 11.5 mph 17.3 mph 0.00 in Snow Light Snow
6:40 AM 30.2 °F 20.8 °F 28.4 °F 93% 30.05 in 1.0 mi NW 11.5 mph 17.3 mph 0.00 in Snow Light Snow
6:51 AM 30.2 °F 23.4 °F 28.4 °F 93% 30.05 in 0.5 mi NW 6.9 mph 17.3 mph 0.00 in Fog , Snow Snow
6:52 AM 30.2 °F 21.9 °F 28.4 °F 93% 30.05 in 0.5 mi NW 9.2 mph 17.3 mph 0.00 in Fog , Snow Snow
6:54 AM 30.9 °F 22.2 °F 28.0 °F 89% 30.05 in 0.5 mi NW 10.4 mph 17.3 mph 0.00 in Fog , Snow Snow
7:05 AM 30.2 °F 21.3 °F 28.4 °F 93% 30.05 in 0.5 mi NNW 10.4 mph 17.3 mph 0.00 in Fog , Snow Light Snow
7:54 AM 30.0 °F 21.1 °F 28.0 °F 92% 30.06 in 0.5 mi NW 10.4 mph 18.4 mph 0.00 in Fog , Snow Snow
8:34 AM 30.2 °F 20.2 °F 28.4 °F 93% 30.06 in 0.5 mi NW 12.7 mph 17.3 mph 0.00 in Fog , Snow Light Snow
8:54 AM 30.9 °F 22.2 °F 28.0 °F 89% 30.06 in 0.5 mi NNW 10.4 mph 18.4 mph 0.00 in Fog , Snow Snow
9:04 AM 30.2 °F 20.8 °F 28.4 °F 93% 30.06 in 0.5 mi NW 11.5 mph - 0.00 in Fog , Snow Snow
9:12 AM 30.2 °F 21.3 °F 28.4 °F 93% 30.06 in 0.5 mi NNW 10.4 mph 19.6 mph 0.00 in Fog , Snow Snow
9:24 AM 30.2 °F 21.3 °F 28.4 °F 93% 30.06 in 0.5 mi NW 10.4 mph - 0.00 in Fog , Snow Snow
9:33 AM 30.2 °F 21.3 °F 28.4 °F 93% 30.06 in 0.5 mi NNW 10.4 mph - 0.00 in Fog , Snow Snow
9:42 AM 30.2 °F 20.2 °F 28.4 °F 93% 30.07 in 0.5 mi NNW 12.7 mph 19.6 mph 0.00 in Fog , Snow Snow
9:54 AM 30.9 °F 21.7 °F 28.9 °F 92% 30.07 in 0.5 mi NNW 11.5 mph - 0.00 in Fog , Snow Snow
10:09 AM 30.2 °F 21.9 °F 28.4 °F 93% 30.07 in 0.5 mi NNW 9.2 mph 18.4 mph 0.01 in Fog , Snow Snow
10:54 AM 32.0 °F 24.2 °F 30.0 °F 92% 30.08 in 0.5 mi NNW 9.2 mph - 0.04 in Fog , Snow Snow
11:54 AM 33.1 °F 24.4 °F 30.0 °F 89% 30.08 in 0.8 mi NNW 11.5 mph 20.7 mph 0.03 in Snow Light Snow
12:05 PM 33.8 °F 25.3 °F 30.2 °F 87% 30.08 in 1.2 mi NNW 11.5 mph - 0.00 in Snow Light Snow
12:14 PM 33.8 °F 25.8 °F 30.2 °F 87% 30.07 in 1.5 mi NNW 10.4 mph 18.4 mph 0.00 in Snow Light Snow
12:23 PM 33.8 °F 25.3 °F 30.2 °F 87% 30.07 in 1.0 mi NNW 11.5 mph 18.4 mph 0.00 in Snow Light Snow
12:32 PM 33.8 °F 25.8 °F 30.2 °F 87% 30.07 in 0.5 mi NNW 10.4 mph - 0.01 in Fog , Snow Snow
12:45 PM 33.8 °F 27.0 °F 30.2 °F 87% 30.06 in 0.8 mi NNW 8.1 mph 18.4 mph 0.01 in Snow Light Snow
12:54 PM 34.0 °F 25.5 °F 30.9 °F 89% 30.07 in 0.5 mi NNW 11.5 mph 18.4 mph 0.01 in Fog , Snow Snow
1:40 PM 33.8 °F 24.8 °F 30.2 °F 87% 30.06 in 1.0 mi NNW 12.7 mph - 0.01 in Snow Light Snow
1:47 PM 33.8 °F 27.0 °F 32.0 °F 93% 30.06 in 1.2 mi NW 8.1 mph 17.3 mph 0.01 in Snow Light Snow
1:54 PM 34.0 °F 26.6 °F 32.0 °F 92% 30.06 in 1.5 mi NNW 9.2 mph - 0.02 in Snow Light Snow
2:14 PM 33.8 °F 27.0 °F 32.0 °F 93% 30.06 in 2.5 mi NW 8.1 mph - 0.00 in Snow Light Snow
2:41 PM 35.6 °F 29.9 °F 32.0 °F 87% 30.07 in 3.0 mi NNW 6.9 mph - 0.02 in Snow Light Snow
2:54 PM 35.1 °F 30.1 °F 33.1 °F 92% 30.07 in 4.0 mi NW 5.8 mph - 0.02 in Snow Light Snow
3:04 PM 35.6 °F 29.9 °F 33.8 °F 93% 30.07 in 4.0 mi NNW 6.9 mph - 0.01 in Rain Light Rain
3:54 PM 37.0 °F 31.0 °F 33.1 °F 86% 30.08 in 8.0 mi NNW 8.1 mph - 0.02 in Rain Light Rain
4:54 PM 37.9 °F 35.5 °F 33.1 °F 83% 30.10 in 10.0 mi North 3.5 mph - 0.01 in   Overcast
5:54 PM 39.9 °F 37.8 °F 33.1 °F 77% 30.12 in 10.0 mi Variable 3.5 mph - N/A   Overcast
6:54 PM 41.0 °F 35.8 °F 30.0 °F 65% 30.14 in 10.0 mi North 8.1 mph - N/A   Overcast
7:54 PM 39.9 °F 35.1 °F 30.0 °F 68% 30.18 in 10.0 mi NNW 6.9 mph - N/A   Overcast
8:54 PM 41.0 °F 33.9 °F 27.0 °F 57% 30.19 in 10.0 mi NNW 12.7 mph - N/A   Overcast
9:54 PM 39.9 °F 33.4 °F 26.1 °F 58% 30.21 in 10.0 mi NNW 10.4 mph - N/A   Overcast
10:54 PM 39.9 °F 32.9 °F 26.1 °F 58% 30.21 in 10.0 mi NNW 11.5 mph - N/A   Overcast
11:54 PM 39.0 °F 31.8 °F 25.0 °F 57% 30.21 in 10.0 mi NNW 11.5 mph - N/A   Overcast